Location: Bun Machan
(52.1403°N, 7.3744°W)
Time: 08:29:47
(UTC+00:00)

ATLAS 5 CENTAUR R/B - Pass Details

Date: 14 July 2020
Orbit: 534 x 1124 km, 63.4° (Epoch: 30 July)

Event Time Altitude Azimuth Distance (km) Brightness Sun altitude
Rises 03:16:04 0° 313° (NW) 3,235 5.3 -8.4°
Reaches altitude 10° 03:18:20 10° 309° (NW) 2,391 4.6 -8.1°
Maximum altitude 03:23:48 59° 232° (SW) 1,037 2.4 -7.6°
Drops below altitude 10° 03:30:12 10° 154° (SSE) 2,774 4.7 -7.0°
Sets 03:33:00 0° 151° (SSE) 3,794 5.4 -6.7°
